DLH732 EDDF-ZSPD

Flight info

Callsign DLH732
Flight time N/A
Altitude 31000
Route CINDY5L CINDY Z74 HAREM DCT ASLEP DCT TAKUT DCT DINKU L603 BESNI/N0483F370 L605 BIBAG Q104 AKIMA DCT ARSIN DCT TEGRI DCT LUGEB DCT UDROS UM859 KARDE UL851 TBN/N0493F390 UM11 REBLO M11 MATAL T916 LEYLA N161 GASBI/K0896F390 N161 BURID/K0885F410 N161 SARIN/K0885S1250 A368 FKG W188 LIKMI W270 DKO W64 NUTLO B208 CGO W129 KAMDA W128 FYG B208 HFE R343 SASAN SAS81A
Aircraft A359/H-SADE2E3GHIJ1J2J3J4J5M1P2RWXYZ/LB1D1

Departure

Time N/A
Airport Frankfurt Main Airport (EDDF)

Arrival

Time 2026-05-06 08:05
Airport Shanghai Pudong International Airport (ZSPD)
Time Latitude Longitude Altitude Speed Heading
2026-05-06 05:13 42.19662 100.01753 41154 ft 544 kts 95°
2026-05-06 05:14 42.18995 100.11906 41152 ft 544 kts 95°
2026-05-06 05:14 42.18318 100.22072 41155 ft 544 kts 95°
2026-05-06 05:15 42.17632 100.32245 41153 ft 545 kts 95°
2026-05-06 05:15 42.16936 100.42425 41154 ft 546 kts 95°
2026-05-06 05:16 42.16230 100.52611 41155 ft 546 kts 95°
2026-05-06 05:16 42.15520 100.62728 41158 ft 546 kts 95°
2026-05-06 05:17 42.14791 100.72980 41157 ft 547 kts 95°
2026-05-06 05:17 42.14062 100.83111 41156 ft 547 kts 95°
2026-05-06 05:18 42.13319 100.93306 41160 ft 547 kts 95°
2026-05-06 05:18 42.12402 101.03531 41160 ft 546 kts 103°
2026-05-06 05:19 42.10229 101.13225 41157 ft 545 kts 110°
2026-05-06 05:19 42.07720 101.22852 41157 ft 545 kts 111°
2026-05-06 05:20 42.05161 101.32446 41139 ft 545 kts 111°
2026-05-06 05:20 42.02607 101.42051 41159 ft 546 kts 111°
2026-05-06 05:21 42.00057 101.51663 41159 ft 546 kts 111°
2026-05-06 05:21 41.97505 101.61266 41159 ft 546 kts 111°
2026-05-06 05:22 41.94943 101.70864 41156 ft 546 kts 111°
2026-05-06 05:22 41.92372 101.80457 41159 ft 546 kts 111°
2026-05-06 05:23 41.89790 101.90052 41156 ft 546 kts 111°
2026-05-06 05:23 41.85906 102.04416 41170 ft 546 kts 112°
2026-05-06 05:24 41.83303 102.13994 41161 ft 547 kts 112°
2026-05-06 05:24 41.80692 102.23568 41162 ft 547 kts 112°
2026-05-06 05:25 41.78071 102.33139 41157 ft 547 kts 112°
2026-05-06 05:25 41.75442 102.42702 41159 ft 547 kts 112°
2026-05-06 05:26 41.72808 102.52250 41159 ft 547 kts 112°
2026-05-06 05:26 41.70162 102.61801 41154 ft 547 kts 112°
2026-05-06 05:27 41.67530 102.71268 41165 ft 546 kts 112°
2026-05-06 05:27 41.64876 102.80786 41169 ft 546 kts 112°
2026-05-06 05:28 41.62211 102.90302 41165 ft 547 kts 112°
2026-05-06 05:28 41.59537 102.99818 41164 ft 547 kts 112°
2026-05-06 05:29 41.56861 103.09320 41170 ft 547 kts 113°
2026-05-06 05:29 41.54167 103.18812 41170 ft 547 kts 113°
2026-05-06 05:30 41.51467 103.28297 41171 ft 547 kts 113°
2026-05-06 05:30 41.48758 103.37781 41171 ft 547 kts 113°
2026-05-06 05:31 41.46046 103.47248 41168 ft 547 kts 113°
2026-05-06 05:31 41.43322 103.56718 41166 ft 547 kts 113°
2026-05-06 05:32 41.40592 103.66177 41169 ft 547 kts 113°
2026-05-06 05:32 41.37851 103.75636 41171 ft 547 kts 113°
2026-05-06 05:33 41.35108 103.85070 41161 ft 547 kts 114°
2026-05-06 05:33 41.32356 103.94502 41169 ft 546 kts 114°
2026-05-06 05:34 41.29583 104.03963 41166 ft 552 kts 114°
2026-05-06 05:34 41.26779 104.13499 41167 ft 556 kts 114°
2026-05-06 05:35 41.23950 104.23087 41168 ft 558 kts 114°
2026-05-06 05:35 41.21106 104.32695 41168 ft 559 kts 114°
2026-05-06 05:36 41.18253 104.42294 41166 ft 559 kts 114°
2026-05-06 05:36 41.15392 104.51886 41168 ft 559 kts 114°
2026-05-06 05:37 41.12522 104.61471 41171 ft 559 kts 114°
2026-05-06 05:37 41.09646 104.71041 41173 ft 559 kts 114°
2026-05-06 05:38 41.06581 104.80486 41173 ft 558 kts 117°
2026-05-06 05:38 41.03345 104.89826 41173 ft 557 kts 117°
2026-05-06 05:39 41.00126 104.99164 41139 ft 557 kts 117°
2026-05-06 05:39 40.96939 105.08501 41167 ft 557 kts 117°
2026-05-06 05:40 40.93773 105.17795 41168 ft 557 kts 117°
2026-05-06 05:40 40.90586 105.27117 41164 ft 557 kts 117°
2026-05-06 05:41 40.87388 105.36437 41159 ft 556 kts 117°
2026-05-06 05:41 40.84184 105.45740 41160 ft 556 kts 117°
2026-05-06 05:42 40.80973 105.55032 41159 ft 556 kts 118°
2026-05-06 05:42 40.77751 105.64325 41140 ft 556 kts 118°
2026-05-06 05:43 40.74525 105.73599 41151 ft 556 kts 118°
2026-05-06 05:43 40.71294 105.82858 41140 ft 556 kts 118°
2026-05-06 05:44 40.68059 105.92098 41147 ft 556 kts 118°
2026-05-06 05:44 40.64815 106.01333 41110 ft 555 kts 118°
2026-05-06 05:45 40.61565 106.10558 41117 ft 555 kts 118°
2026-05-06 05:45 40.58307 106.19773 41119 ft 555 kts 118°
2026-05-06 05:46 40.55043 106.28975 41108 ft 556 kts 118°
2026-05-06 05:46 40.51768 106.38179 41097 ft 556 kts 119°
2026-05-06 05:47 40.48478 106.47397 41091 ft 557 kts 119°
2026-05-06 05:47 40.45184 106.56597 41084 ft 557 kts 119°
2026-05-06 05:48 40.41885 106.65781 41083 ft 557 kts 119°
2026-05-06 05:48 40.38576 106.74961 41083 ft 556 kts 119°
2026-05-06 05:49 40.35281 106.84078 41081 ft 556 kts 119°
2026-05-06 05:49 40.32208 106.93397 41081 ft 561 kts 109°
2026-05-06 05:50 40.31381 106.98408 41084 ft 565 kts 98°
2026-05-06 05:50 40.31228 107.03547 41087 ft 567 kts 89°
2026-05-06 05:50 40.31621 107.13873 41095 ft 568 kts 86°
2026-05-06 05:51 40.32215 107.24215 41085 ft 569 kts 86°
2026-05-06 05:51 40.32786 107.34556 41076 ft 569 kts 86°
2026-05-06 05:52 40.33307 107.44897 41087 ft 570 kts 87°
2026-05-06 05:52 40.33803 107.55265 41073 ft 570 kts 87°
2026-05-06 05:53 40.34289 107.65655 41071 ft 570 kts 87°
2026-05-06 05:53 40.34768 107.76034 41069 ft 571 kts 88°
2026-05-06 05:54 40.35240 107.86434 41075 ft 572 kts 88°
2026-05-06 05:54 40.35703 107.96829 41106 ft 572 kts 88°
2026-05-06 05:55 40.36153 108.07241 41064 ft 572 kts 88°
2026-05-06 05:55 40.36564 108.17644 41064 ft 571 kts 88°
2026-05-06 05:56 40.36961 108.28048 41056 ft 571 kts 88°
2026-05-06 05:56 40.37355 108.38457 41066 ft 571 kts 88°
2026-05-06 05:57 40.37743 108.48867 41058 ft 572 kts 88°
2026-05-06 05:57 40.38122 108.59288 41055 ft 572 kts 88°
2026-05-06 05:58 40.38429 108.67954 41050 ft 572 kts 88°
2026-05-06 05:58 40.38792 108.78382 41039 ft 572 kts 89°
2026-05-06 05:59 40.39145 108.88818 41044 ft 573 kts 89°
2026-05-06 05:59 40.39488 108.99249 41034 ft 573 kts 89°
2026-05-06 06:00 40.39822 109.09699 41036 ft 573 kts 89°
2026-05-06 06:00 40.40147 109.20143 41029 ft 574 kts 89°
2026-05-06 06:01 40.40463 109.30614 41022 ft 574 kts 89°
2026-05-06 06:01 40.40770 109.41080 41019 ft 574 kts 89°
2026-05-06 06:02 40.41065 109.51480 41017 ft 575 kts 89°
2026-05-06 06:02 40.41353 109.61961 41016 ft 575 kts 89°
2026-05-06 06:03 40.41632 109.72463 41017 ft 576 kts 89°
2026-05-06 06:03 40.41901 109.82959 41006 ft 575 kts 89°
2026-05-06 06:04 40.42161 109.93447 41014 ft 575 kts 89°
2026-05-06 06:04 40.42352 110.03940 41032 ft 575 kts 91°
2026-05-06 06:05 40.42273 110.14443 40997 ft 575 kts 93°
2026-05-06 06:05 40.42149 110.24930 41009 ft 575 kts 92°
2026-05-06 06:06 40.42056 110.35414 41004 ft 575 kts 92°
2026-05-06 06:06 40.41972 110.45901 41005 ft 575 kts 92°
2026-05-06 06:07 40.41886 110.56394 41008 ft 575 kts 92°
2026-05-06 06:07 40.41790 110.66894 41000 ft 575 kts 92°
2026-05-06 06:08 40.41683 110.77387 40997 ft 575 kts 93°
2026-05-06 06:08 40.41566 110.87883 40994 ft 576 kts 93°
2026-05-06 06:09 40.41439 110.98415 40996 ft 577 kts 93°
2026-05-06 06:09 40.41303 111.08884 40999 ft 578 kts 93°
2026-05-06 06:10 40.41158 111.19419 40992 ft 578 kts 94°
2026-05-06 06:10 40.41002 111.29987 40996 ft 579 kts 94°
2026-05-06 06:11 40.40841 111.40552 40999 ft 580 kts 94°
2026-05-06 06:11 40.40660 111.51124 41000 ft 580 kts 94°
2026-05-06 06:12 40.40470 111.61711 41006 ft 580 kts 94°
2026-05-06 06:12 40.40273 111.72271 41008 ft 580 kts 94°
2026-05-06 06:13 40.40067 111.82853 40998 ft 580 kts 94°
2026-05-06 06:13 40.39496 111.93357 41020 ft 571 kts 109°
2026-05-06 06:14 40.38158 111.98180 41011 ft 557 kts 124°
2026-05-06 06:14 40.36063 112.02344 41007 ft 539 kts 139°
2026-05-06 06:14 40.33367 112.05609 41008 ft 519 kts 154°
2026-05-06 06:14 40.30266 112.07807 41002 ft 496 kts 170°
2026-05-06 06:15 40.27000 112.08829 41008 ft 473 kts 185°
2026-05-06 06:15 40.23794 112.08661 40972 ft 452 kts 200°
2026-05-06 06:15 40.20891 112.07364 41003 ft 434 kts 215°
2026-05-06 06:15 40.18487 112.05094 41017 ft 423 kts 229°
2026-05-06 06:16 40.13674 112.00629 41007 ft 442 kts 208°
2026-05-06 06:16 40.10637 111.99676 41006 ft 460 kts 193°
2026-05-06 06:16 40.07380 111.99872 41009 ft 481 kts 178°
2026-05-06 06:17 40.04135 112.01255 40978 ft 503 kts 163°
2026-05-06 06:17 40.01144 112.03778 41005 ft 524 kts 148°
2026-05-06 06:17 39.98609 112.07296 41013 ft 540 kts 134°
2026-05-06 06:17 39.96192 112.10998 41012 ft 532 kts 143°
2026-05-06 06:18 39.93438 112.14146 41006 ft 521 kts 153°
2026-05-06 06:18 39.90404 112.16605 41013 ft 507 kts 163°
2026-05-06 06:18 39.87186 112.18292 41008 ft 492 kts 173°
2026-05-06 06:18 39.83892 112.19206 41010 ft 478 kts 183°
2026-05-06 06:19 39.80621 112.19393 41009 ft 465 kts 192°
2026-05-06 06:19 39.77451 112.18918 41011 ft 453 kts 200°
2026-05-06 06:19 39.71389 112.16927 41010 ft 454 kts 199°
2026-05-06 06:20 39.64970 112.16437 41006 ft 475 kts 184°
2026-05-06 06:20 39.58374 112.17716 41003 ft 482 kts 179°
2026-05-06 06:21 39.51768 112.19364 41010 ft 484 kts 178°
2026-05-06 06:21 39.45150 112.21048 41001 ft 484 kts 179°
2026-05-06 06:22 39.38541 112.22705 41003 ft 484 kts 179°
2026-05-06 06:22 39.31927 112.24328 41003 ft 484 kts 179°
2026-05-06 06:23 39.25304 112.25946 41004 ft 484 kts 179°
2026-05-06 06:23 39.18682 112.27572 41004 ft 484 kts 179°
2026-05-06 06:24 39.12062 112.29190 40992 ft 484 kts 178°
2026-05-06 06:24 39.05443 112.30804 40995 ft 485 kts 178°
2026-05-06 06:25 38.98811 112.32420 40996 ft 485 kts 179°
2026-05-06 06:26 38.88862 112.34834 40983 ft 485 kts 179°
2026-05-06 06:26 38.82233 112.36439 40971 ft 485 kts 179°
2026-05-06 06:27 38.75599 112.38041 40970 ft 485 kts 178°
2026-05-06 06:27 38.69012 112.39630 40952 ft 485 kts 178°
2026-05-06 06:28 38.62374 112.41231 40967 ft 486 kts 178°
2026-05-06 06:28 38.55729 112.42828 40956 ft 486 kts 179°
2026-05-06 06:29 38.49088 112.44417 40946 ft 485 kts 179°
2026-05-06 06:29 38.42451 112.46010 40923 ft 486 kts 178°
2026-05-06 06:30 38.35800 112.47584 40931 ft 486 kts 179°
2026-05-06 06:30 38.29151 112.49147 40929 ft 486 kts 179°
2026-05-06 06:31 38.22499 112.50711 40916 ft 486 kts 178°
2026-05-06 06:31 38.15851 112.52273 40912 ft 486 kts 178°
2026-05-06 06:32 38.09208 112.53830 40915 ft 487 kts 178°
2026-05-06 06:32 38.02529 112.55397 40911 ft 487 kts 178°
2026-05-06 06:33 37.95861 112.56957 40893 ft 488 kts 178°
2026-05-06 06:33 37.89182 112.58516 40888 ft 488 kts 178°
2026-05-06 06:34 37.82500 112.60094 40884 ft 489 kts 178°
2026-05-06 06:34 37.75824 112.61684 40879 ft 489 kts 178°
2026-05-06 06:35 37.69144 112.63562 40887 ft 495 kts 174°
2026-05-06 06:35 37.62500 112.65903 40881 ft 496 kts 173°
2026-05-06 06:36 37.55849 112.68256 40874 ft 496 kts 173°
2026-05-06 06:36 37.49199 112.70513 40871 ft 495 kts 174°
2026-05-06 06:37 37.42552 112.72727 40869 ft 494 kts 174°
2026-05-06 06:37 37.35899 112.74934 40866 ft 494 kts 174°
2026-05-06 06:38 37.29250 112.77139 40854 ft 495 kts 174°
2026-05-06 06:38 37.22620 112.79334 40870 ft 498 kts 173°
2026-05-06 06:39 37.15863 112.81569 40871 ft 500 kts 173°
2026-05-06 06:39 37.09183 112.83779 40863 ft 500 kts 173°
2026-05-06 06:40 37.02452 112.86012 40858 ft 501 kts 173°
2026-05-06 06:40 36.95718 112.88238 40860 ft 501 kts 173°
2026-05-06 06:41 36.88984 112.90452 40854 ft 501 kts 173°
2026-05-06 06:41 36.82248 112.92665 40824 ft 501 kts 173°
2026-05-06 06:42 36.75498 112.94880 40848 ft 502 kts 173°
2026-05-06 06:42 36.68735 112.97097 40840 ft 502 kts 173°
2026-05-06 06:43 36.61977 112.99310 40827 ft 502 kts 173°
2026-05-06 06:43 36.55208 113.01522 40826 ft 503 kts 173°
2026-05-06 06:44 36.48451 113.03725 40820 ft 502 kts 173°
2026-05-06 06:44 36.41686 113.05927 40821 ft 502 kts 173°
2026-05-06 06:45 36.34919 113.08125 40795 ft 502 kts 173°
2026-05-06 06:45 36.28156 113.10318 40815 ft 503 kts 173°
2026-05-06 06:46 36.21419 113.12838 40810 ft 509 kts 168°
2026-05-06 06:46 36.15871 113.15280 40810 ft 510 kts 168°
2026-05-06 06:47 36.09198 113.18293 40803 ft 510 kts 167°
2026-05-06 06:47 36.02527 113.21304 40813 ft 510 kts 167°
2026-05-06 06:48 35.95863 113.24294 40807 ft 510 kts 167°
2026-05-06 06:48 35.89199 113.27272 40823 ft 510 kts 167°
2026-05-06 06:49 35.82531 113.30250 40803 ft 510 kts 167°
2026-05-06 06:49 35.75865 113.33233 40823 ft 510 kts 167°
2026-05-06 06:50 35.69192 113.36211 40821 ft 510 kts 167°
2026-05-06 06:50 35.62525 113.39181 40805 ft 510 kts 167°
2026-05-06 06:51 35.55850 113.42149 40802 ft 510 kts 167°
2026-05-06 06:51 35.49167 113.45108 40792 ft 511 kts 167°
2026-05-06 06:52 35.42496 113.48063 40782 ft 510 kts 167°
2026-05-06 06:52 35.35828 113.51034 40769 ft 510 kts 167°
2026-05-06 06:53 35.29161 113.53998 40760 ft 511 kts 167°
2026-05-06 06:53 35.22475 113.56964 40752 ft 511 kts 167°
2026-05-06 06:54 35.15775 113.59933 40750 ft 512 kts 167°
2026-05-06 06:54 35.09086 113.62892 40747 ft 511 kts 167°
2026-05-06 06:55 35.02385 113.65849 40747 ft 514 kts 167°
2026-05-06 06:55 34.95631 113.68824 40749 ft 516 kts 167°
2026-05-06 06:56 34.88875 113.71798 40750 ft 516 kts 167°
2026-05-06 06:56 34.82093 113.74629 40735 ft 513 kts 171°
2026-05-06 06:57 34.75206 113.76834 40765 ft 512 kts 173°
2026-05-06 06:57 34.68298 113.78956 40769 ft 513 kts 172°
2026-05-06 06:58 34.61385 113.81175 40772 ft 514 kts 172°
2026-05-06 06:58 34.54481 113.83446 40768 ft 514 kts 171°
2026-05-06 06:59 34.47570 113.85718 40773 ft 515 kts 172°
2026-05-06 06:59 34.40646 113.87903 40765 ft 514 kts 172°
2026-05-06 07:00 34.33713 113.90070 40767 ft 514 kts 172°
2026-05-06 07:00 34.26781 113.92246 40771 ft 516 kts 172°
2026-05-06 07:01 34.19814 113.94437 40773 ft 518 kts 171°
2026-05-06 07:01 34.12839 113.96631 40772 ft 518 kts 172°
2026-05-06 07:02 34.05864 113.98821 40772 ft 518 kts 172°
2026-05-06 07:02 33.98896 114.01004 40774 ft 517 kts 172°
2026-05-06 07:03 33.91928 114.03182 40777 ft 517 kts 172°
2026-05-06 07:03 33.84955 114.05359 40781 ft 517 kts 172°
2026-05-06 07:04 33.77990 114.07529 40772 ft 518 kts 171°
2026-05-06 07:04 33.70991 114.09704 40787 ft 520 kts 171°
2026-05-06 07:05 33.63976 114.11883 40790 ft 521 kts 171°
2026-05-06 07:05 33.56968 114.14057 40793 ft 521 kts 171°
2026-05-06 07:06 33.49955 114.16230 40786 ft 519 kts 171°
2026-05-06 07:06 33.43080 114.18954 40791 ft 527 kts 159°
2026-05-06 07:06 33.39910 114.21202 40790 ft 535 kts 148°
2026-05-06 07:07 33.37082 114.24134 40792 ft 541 kts 137°
2026-05-06 07:07 33.34769 114.27623 40798 ft 547 kts 125°
2026-05-06 07:07 33.32973 114.31719 40805 ft 550 kts 114°
2026-05-06 07:08 33.30204 114.40194 40795 ft 552 kts 111°
2026-05-06 07:08 33.27588 114.48824 40800 ft 552 kts 111°
2026-05-06 07:09 33.24967 114.57451 40803 ft 552 kts 111°
2026-05-06 07:09 33.22307 114.66050 40808 ft 552 kts 111°
2026-05-06 07:10 33.19630 114.74625 40807 ft 552 kts 111°
2026-05-06 07:10 33.16933 114.83191 40812 ft 552 kts 112°
2026-05-06 07:11 33.14224 114.91746 40802 ft 552 kts 112°
2026-05-06 07:11 33.11509 115.00314 40815 ft 551 kts 112°
2026-05-06 07:12 33.08797 115.08854 40820 ft 550 kts 112°
2026-05-06 07:12 33.06083 115.17381 40821 ft 550 kts 112°
2026-05-06 07:13 33.03363 115.25905 40819 ft 550 kts 112°
2026-05-06 07:13 33.00636 115.34425 40818 ft 550 kts 112°
2026-05-06 07:14 32.97906 115.42931 40827 ft 550 kts 112°
2026-05-06 07:14 32.95222 115.51387 40823 ft 550 kts 112°
2026-05-06 07:15 32.92553 115.59915 40829 ft 550 kts 111°
2026-05-06 07:15 32.89871 115.68436 40825 ft 549 kts 112°
2026-05-06 07:16 32.86155 115.76289 40837 ft 543 kts 130°
2026-05-06 07:16 32.81428 115.83294 40830 ft 542 kts 133°
2026-05-06 07:17 32.76554 115.90134 40834 ft 542 kts 133°
2026-05-06 07:17 32.71666 115.96971 40838 ft 543 kts 133°
2026-05-06 07:18 32.66797 116.03819 40836 ft 543 kts 133°
2026-05-06 07:18 32.61939 116.10666 40839 ft 543 kts 133°
2026-05-06 07:19 32.57077 116.17510 40843 ft 543 kts 133°
2026-05-06 07:19 32.52260 116.24406 40842 ft 543 kts 132°
2026-05-06 07:20 32.47507 116.31359 40845 ft 543 kts 131°
2026-05-06 07:20 32.42752 116.38298 40845 ft 543 kts 131°
2026-05-06 07:21 32.37977 116.45227 40848 ft 543 kts 132°
2026-05-06 07:21 32.33199 116.52134 40848 ft 543 kts 132°
2026-05-06 07:22 32.28452 116.58983 40833 ft 543 kts 132°
2026-05-06 07:22 32.23658 116.65888 40851 ft 543 kts 132°
2026-05-06 07:23 32.18866 116.72778 40852 ft 543 kts 132°
2026-05-06 07:23 32.14023 116.79624 40856 ft 543 kts 133°
2026-05-06 07:24 32.09116 116.86395 40856 ft 543 kts 133°
2026-05-06 07:24 32.04212 116.93161 40862 ft 543 kts 133°
2026-05-06 07:25 31.99317 116.99933 40852 ft 543 kts 133°
2026-05-06 07:25 31.94428 117.06716 40862 ft 543 kts 133°
2026-05-06 07:26 31.89549 117.13490 40861 ft 543 kts 133°
2026-05-06 07:26 31.84653 117.20273 40868 ft 543 kts 133°
2026-05-06 07:27 31.80042 117.27312 40872 ft 546 kts 122°
2026-05-06 07:27 31.78366 117.31306 40868 ft 547 kts 111°
2026-05-06 07:27 31.77292 117.35609 40875 ft 547 kts 100°
2026-05-06 07:28 31.76393 117.44471 40877 ft 547 kts 94°
2026-05-06 07:28 31.75551 117.57859 40883 ft 548 kts 93°
2026-05-06 07:29 31.74966 117.66793 40882 ft 549 kts 93°
2026-05-06 07:29 31.74340 117.75722 40885 ft 549 kts 93°
2026-05-06 07:30 31.73702 117.84593 40887 ft 549 kts 94°
2026-05-06 07:30 31.73053 117.93525 40890 ft 549 kts 93°
2026-05-06 07:31 31.72400 118.02448 40882 ft 548 kts 94°
2026-05-06 07:31 31.71742 118.11360 40894 ft 548 kts 94°
2026-05-06 07:32 31.71116 118.20271 40882 ft 547 kts 93°
2026-05-06 07:32 31.70501 118.29181 40883 ft 547 kts 93°
2026-05-06 07:33 31.69877 118.38094 40884 ft 547 kts 93°
2026-05-06 07:33 31.69244 118.46986 40884 ft 547 kts 94°
2026-05-06 07:34 31.68603 118.55884 40890 ft 547 kts 94°
2026-05-06 07:34 31.68062 118.63331 40892 ft 547 kts 94°
2026-05-06 07:35 31.67414 118.72158 40886 ft 546 kts 94°
2026-05-06 07:35 31.66755 118.81041 40881 ft 546 kts 94°
2026-05-06 07:36 31.66094 118.89921 40886 ft 546 kts 94°
2026-05-06 07:36 31.65431 118.98707 40881 ft 535 kts 93°
2026-05-06 07:37 31.64795 119.07375 40901 ft 532 kts 92°
2026-05-06 07:37 31.64346 119.16029 40895 ft 531 kts 91°
2026-05-06 07:38 31.63996 119.24688 40901 ft 531 kts 91°
2026-05-06 07:38 31.63641 119.33338 40917 ft 531 kts 91°
2026-05-06 07:39 31.63258 119.41986 40898 ft 531 kts 91°
2026-05-06 07:39 31.62849 119.50635 40902 ft 531 kts 91°
2026-05-06 07:40 31.62638 119.54949 40795 ft 527 kts 91°
2026-05-06 07:40 31.62428 119.59228 40254 ft 524 kts 91°
2026-05-06 07:40 31.62218 119.63493 39562 ft 525 kts 91°
2026-05-06 07:40 31.62008 119.67785 38718 ft 529 kts 91°
2026-05-06 07:41 31.61808 119.72116 37748 ft 533 kts 91°
2026-05-06 07:41 31.61611 119.76468 36786 ft 536 kts 91°
2026-05-06 07:41 31.61411 119.80838 35863 ft 538 kts 92°
2026-05-06 07:41 31.61208 119.85231 34977 ft 539 kts 92°
2026-05-06 07:42 31.61003 119.89625 34115 ft 541 kts 92°
2026-05-06 07:42 31.60798 119.93976 33194 ft 542 kts 92°
2026-05-06 07:42 31.60586 119.98455 32257 ft 543 kts 92°
2026-05-06 07:42 31.60374 120.02878 31349 ft 544 kts 92°
2026-05-06 07:43 31.60161 120.07314 30476 ft 545 kts 92°
2026-05-06 07:43 31.59948 120.11692 29562 ft 546 kts 92°
2026-05-06 07:43 31.59728 120.16196 28571 ft 546 kts 92°
2026-05-06 07:43 31.59513 120.20572 27639 ft 545 kts 92°
2026-05-06 07:44 31.59294 120.24995 26744 ft 543 kts 92°
2026-05-06 07:44 31.59068 120.29395 25989 ft 538 kts 93°
2026-05-06 07:44 31.58429 120.33686 25277 ft 529 kts 106°
2026-05-06 07:44 31.57322 120.37704 24509 ft 506 kts 110°
2026-05-06 07:45 31.56175 120.41526 23821 ft 488 kts 110°
2026-05-06 07:45 31.55055 120.45249 23113 ft 481 kts 110°
2026-05-06 07:45 31.53954 120.48930 22374 ft 476 kts 110°
2026-05-06 07:45 31.52871 120.52566 21648 ft 470 kts 110°
2026-05-06 07:46 31.51804 120.56156 20942 ft 464 kts 110°
2026-05-06 07:46 31.50748 120.59712 20238 ft 460 kts 110°
2026-05-06 07:46 31.49695 120.63256 19571 ft 460 kts 110°
2026-05-06 07:46 31.48647 120.66784 18906 ft 456 kts 110°
2026-05-06 07:47 31.47611 120.70267 18286 ft 448 kts 110°
2026-05-06 07:47 31.46604 120.73653 17692 ft 436 kts 110°
2026-05-06 07:47 31.45599 120.77019 17120 ft 436 kts 110°
2026-05-06 07:47 31.44604 120.80352 16553 ft 431 kts 110°
2026-05-06 07:48 31.43600 120.83614 16140 ft 422 kts 111°
2026-05-06 07:48 31.42594 120.86825 15767 ft 419 kts 111°
2026-05-06 07:48 31.41594 120.90020 15309 ft 417 kts 111°
2026-05-06 07:48 31.40601 120.93196 14834 ft 414 kts 111°
2026-05-06 07:49 31.39624 120.96341 14382 ft 411 kts 110°
2026-05-06 07:49 31.38666 120.99491 13926 ft 408 kts 110°
2026-05-06 07:49 31.37720 121.02607 13440 ft 405 kts 110°
2026-05-06 07:49 31.36782 121.05695 12935 ft 402 kts 110°
2026-05-06 07:50 31.35857 121.08731 12433 ft 399 kts 110°
2026-05-06 07:50 31.34930 121.11772 11944 ft 395 kts 110°
2026-05-06 07:50 31.34023 121.14793 11468 ft 393 kts 110°
2026-05-06 07:50 31.33122 121.17801 10987 ft 390 kts 110°
2026-05-06 07:51 31.32233 121.20767 10521 ft 381 kts 110°
2026-05-06 07:51 31.31364 121.23660 10059 ft 374 kts 110°
2026-05-06 07:51 31.30510 121.26498 9571 ft 366 kts 110°
2026-05-06 07:51 31.29675 121.29272 9046 ft 358 kts 110°
2026-05-06 07:52 31.28853 121.31997 8562 ft 352 kts 110°
2026-05-06 07:52 31.28051 121.34662 8128 ft 343 kts 110°
2026-05-06 07:52 31.27276 121.37232 7976 ft 326 kts 111°
2026-05-06 07:52 31.26539 121.39653 7960 ft 306 kts 111°
2026-05-06 07:53 31.25840 121.41949 7963 ft 296 kts 111°
2026-05-06 07:53 31.25150 121.44209 7967 ft 295 kts 111°
2026-05-06 07:53 31.24460 121.46474 7969 ft 297 kts 111°
2026-05-06 07:53 31.23767 121.48748 7968 ft 297 kts 111°
2026-05-06 07:54 31.23085 121.51012 7752 ft 293 kts 110°
2026-05-06 07:54 31.22798 121.53342 7355 ft 292 kts 85°
2026-05-06 07:54 31.23265 121.55659 6902 ft 294 kts 72°
2026-05-06 07:54 31.23904 121.57907 6620 ft 287 kts 72°
2026-05-06 07:55 31.24717 121.59982 6415 ft 278 kts 56°
2026-05-06 07:55 31.26174 121.61380 6123 ft 271 kts 22°
2026-05-06 07:55 31.28013 121.61666 5673 ft 269 kts 349°
2026-05-06 07:55 31.29800 121.61111 5312 ft 265 kts 340°
2026-05-06 07:56 31.31546 121.60417 4910 ft 265 kts 340°
2026-05-06 07:56 31.33298 121.59718 4510 ft 266 kts 340°
2026-05-06 07:56 31.35049 121.59031 4131 ft 265 kts 341°
2026-05-06 07:56 31.36801 121.58367 3777 ft 265 kts 342°
2026-05-06 07:57 31.38607 121.58278 3513 ft 259 kts 18°
2026-05-06 07:57 31.40026 121.59370 3472 ft 236 kts 57°
2026-05-06 07:57 31.40494 121.61042 3474 ft 207 kts 97°
2026-05-06 07:57 31.39932 121.62423 3487 ft 179 kts 143°
2026-05-06 07:58 31.38850 121.63048 3493 ft 174 kts 156°
2026-05-06 07:58 31.38030 121.64089 3500 ft 178 kts 121°
2026-05-06 07:58 31.37526 121.65406 3495 ft 178 kts 114°
2026-05-06 07:58 31.37080 121.66761 3494 ft 179 kts 113°
2026-05-06 07:59 31.36649 121.68126 3495 ft 180 kts 113°
2026-05-06 07:59 31.36222 121.69496 3493 ft 179 kts 113°
2026-05-06 07:59 31.35667 121.70759 3490 ft 174 kts 137°
2026-05-06 07:59 31.34646 121.71502 3492 ft 169 kts 158°
2026-05-06 08:00 31.33601 121.71935 3481 ft 154 kts 162°
2026-05-06 08:00 31.32624 121.72317 3384 ft 144 kts 162°
2026-05-06 08:00 31.31677 121.72680 3214 ft 140 kts 162°
2026-05-06 08:00 31.30763 121.73027 3019 ft 138 kts 162°
2026-05-06 08:01 31.29856 121.73373 2818 ft 136 kts 161°
2026-05-06 08:01 31.28957 121.73716 2647 ft 136 kts 161°
2026-05-06 08:01 31.28064 121.74056 2464 ft 134 kts 162°
2026-05-06 08:01 31.27179 121.74392 2292 ft 135 kts 163°
2026-05-06 08:02 31.26268 121.74737 2120 ft 139 kts 161°
2026-05-06 08:02 31.25357 121.75084 1922 ft 137 kts 161°
2026-05-06 08:02 31.24438 121.75431 1724 ft 140 kts 162°
2026-05-06 08:02 31.23515 121.75777 1564 ft 139 kts 161°
2026-05-06 08:03 31.22590 121.76138 1363 ft 144 kts 161°
2026-05-06 08:03 31.21632 121.76530 1196 ft 147 kts 161°
2026-05-06 08:03 31.20650 121.76896 980 ft 152 kts 162°
2026-05-06 08:03 31.19638 121.77269 752 ft 153 kts 161°
2026-05-06 08:04 31.18649 121.77657 548 ft 144 kts 161°
2026-05-06 08:04 31.17728 121.78005 380 ft 135 kts 162°
2026-05-06 08:04 31.16863 121.78334 202 ft 128 kts 162°
2026-05-06 08:04 31.16023 121.78649 96 ft 125 kts 161°
2026-05-06 08:05 31.15188 121.78953 31 ft 124 kts 161°
2026-05-06 08:05 31.14462 121.79229 30 ft 94 kts 162°
2026-05-06 08:05 31.13942 121.79428 27 ft 50 kts 159°
2026-05-06 08:05 31.13765 121.79571 28 ft 29 kts 132°
2026-05-06 08:06 31.13726 121.79741 29 ft 19 kts 75°
2026-05-06 08:06 31.13767 121.79894 29 ft 17 kts 72°
2026-05-06 08:06 31.13789 121.79973 29 ft 10 kts 72°
2026-05-06 08:06 31.13836 121.80008 29 ft 9 kts
2026-05-06 08:07 31.13909 121.79990 29 ft 13 kts 345°
2026-05-06 08:07 31.14006 121.79954 29 ft 16 kts 342°
2026-05-06 08:07 31.14126 121.79909 29 ft 20 kts 342°
2026-05-06 08:07 31.14268 121.79856 29 ft 23 kts 342°
2026-05-06 08:08 31.14387 121.79810 29 ft 12 kts 341°
2026-05-06 08:08 31.14453 121.79784 29 ft 9 kts 341°
2026-05-06 08:08 31.14513 121.79806 29 ft 11 kts 41°
2026-05-06 08:08 31.14538 121.79860 29 ft 7 kts 72°
2026-05-06 08:09 31.14541 121.79874 29 ft 0 kts 73°